This demonstration page uses our WeatherBlox Daily Observations layout. Learn more.

Left ArrowRight Arrow

34.74481, -87.66753

Hourly Observations for June 7, 2019

Temp ( °F °C ) Dew Point ( °F °C ) Humidity (%) Winds ( mph kmh ) Pressure ( in mb ) Visibility ( mi km ) Precip ( " mm )
12:01 am 00:01 Cloudy 73 22.8 70 21.1 90 90 E 7 11 29.74 1007 10 16 0.00 0.00
12:53 am 00:53 Cloudy with Rain 73 22.8 70 21.1 90 90 E 6 9 29.72 1007 10 16 0.03 0.76
1:53 am 01:53 Mostly Cloudy with Light Rain 73 22.8 70 21.1 90 90 E 12 19 29.69 1005 10 16 0.09 2.29
2:00 am 02:00 Partly Cloudy with Light Rain 73 22.8 71 21.7 94 94 ESE 12 19 29.68 1005 10 16 0.01 0.25
2:53 am 02:53 Mostly Cloudy with Light Rain 73 22.8 71 21.7 94 94 SE 6 9 29.66 1004 10 16 0.09 2.29
3:02 am 03:02 Mostly Cloudy with Light Rain 73 22.8 71 21.7 94 94 ESE 8 13 29.66 1004 10 16 0.01 0.25
3:10 am 03:10 Cloudy with Light Rain 73 22.8 70 21.1 90 90 ESE 3 6 29.66 1004 10 16 0.01 0.25
3:53 am 03:53 Cloudy 73 22.8 71 21.7 94 94 Calm 29.67 1005 10 16 0.01 0.25
4:53 am 04:53 Cloudy 73 22.8 71 21.7 94 94 undefined N/A 29.67 1005 10 16 0.00 0.00
5:51 am 05:51 Cloudy with Light Rain 73 23 72 22 94 94 NNW 3 6 29.68 1005 10 16 0.04 1.02
5:53 am 05:53 Cloudy with Light Rain 73 22.8 71 21.7 94 94 Calm 29.68 1005 10 16 0.04 1.02
6:20 am 06:20 Cloudy 73 22.8 71 21.7 94 94 NNW 3 6 29.68 1005 10 16 0.00 0.03
6:28 am 06:28 Cloudy 73 22.8 71 21.7 94 94 N 3 6 29.68 1005 10 16 0.00 0.03
6:53 am 06:53 Cloudy 74 23.3 71 21.7 91 91 Calm 29.69 1005 10 16 0.00 0.03
7:22 am 07:22 Cloudy 74 23.3 71 21.7 91 91 W 3 6 29.69 1005 10 16 0.00 0.00
7:53 am 07:53 Cloudy 75 23.9 72 22.2 90 90 Calm 29.69 1006 10 16 0.00 0.00
8:53 am 08:53 Cloudy 76 24.4 72 22.2 88 88 WSW 3 6 29.70 1006 10 16 0.00 0.00
9:26 am 09:26 Mostly Cloudy 78 25.6 73 22.8 85 85 SSW 7 11 29.70 1006 10 16 0.00 0.00
9:53 am 09:53 Cloudy 79 26.1 73 22.8 82 82 SW 9 15 29.71 1006 10 16 0.00 0.00
10:34 am 10:34 Mostly Cloudy 81 27.2 71 21.7 72 72 VRB 6 9 29.70 1006 10 16 0.00 0.00
10:53 am 10:53 Partly Cloudy 83 28.3 71 21.7 67 67 SW 9 15 29.71 1006 10 16 0.00 0.00
11:53 am 11:53 Mostly Cloudy 84 28.9 69 20.6 61 61 WSW 10 17 29.70 1006 10 16 0.00 0.00
12:53 pm 12:53 Mostly Sunny 88 31.1 69 20.6 54 54 WSW 9 15 29.67 1005 10 16 0.00 0.00
1:53 pm 13:53 Mostly Sunny 88 31.1 69 20.6 54 54 SW 8 13 29.66 1004 10 16 0.00 0.00
2:53 pm 14:53 Mostly Cloudy 87 30.6 68 20 53 53 SSW 7 11 29.64 1004 10 16 0.00 0.00
3:53 pm 15:53 Mostly Cloudy 88 31.1 67 19.4 50 50 Calm 29.64 1004 10 16 0.00 0.00
4:53 pm 16:53 Cloudy with Light Rain 81 27.2 68 20 65 65 N 7 11 29.66 1004 10 16 0.00 0.03
5:53 pm 17:53 Sunny 79 26.1 69 20.6 72 72 NNE 3 6 29.65 1004 10 16 0.00 0.03
6:09 pm 18:09 Partly Cloudy with Nearby Thunderstorms 78 25.6 69 20.6 74 74 SE 8 13 29.66 1004 10 16 0.00 0.00
6:49 pm 18:49 Mostly Sunny 75 24 66 19 74 74 S 8 13 29.68 1005 10 16 0.00 0.00
6:53 pm 18:53 Mostly Sunny 75 23.9 68 20 79 79 SSW 9 15 29.68 1005 10 16 0.00 0.00
7:11 pm 19:11 Partly Cloudy with Nearby Thunderstorms 75 23.9 69 20.6 82 82 SSW 6 9 29.68 1005 10 16 0.00 0.03
7:26 pm 19:26 Partly Cloudy 74 23.3 70 21.1 88 88 S 6 9 29.68 1005 10 16 0.00 0.03
7:53 pm 19:53 Partly Cloudy with Rain 73 22.8 70 21.1 90 90 SE 5 7 29.68 1005 10 16 0.03 0.76
8:53 pm 20:53 Clear with Light Rain 73 22.8 70 21.1 90 90 SSW 3 6 29.70 1006 10 16 0.11 2.79
9:53 pm 21:53 Clear 72 22.2 70 21.1 94 94 Calm 29.69 1006 10 16 0.00 0.03
10:05 pm 22:05 Mostly Clear 72 22.2 70 21.1 94 94 Calm 29.69 1006 10 16 0.00 0.00
10:53 pm 22:53 Mostly Clear 72 22.2 69 20.6 91 91 Calm 29.70 1006 10 16 0.00 0.00
11:20 pm 23:20 Mostly Clear 72 22.2 69 20.6 91 91 Calm 29.71 1006 10 16 0.00 0.00
11:53 pm 23:53 Clear 71 21.7 69 20.6 94 94 Calm 29.70 1006 10 16 0.00 0.00

Powered by AerisWeather